This is the latest recevied weather packets stored in our database for station/object W0VI. If no packets are shown the sender has not sent any weather packets the latest 10 day(s).
| Time | Temp. | Humidity | Pressure | Rain* | Wind** | Luminosity | Snow |
|---|---|---|---|---|---|---|---|
| 1787939831 | 26.67° C | 49% | 1019.6 hPa | 0 mm | - | 551 W/m² | - |
| 1787939526 | 26.67° C | 48% | 1019.9 hPa | 0 mm | - | 531 W/m² | - |
| 1787939221 | 26.67° C | 50% | 1019.8 hPa | 0 mm | - | 523 W/m² | - |
| 1787938920 | 26.11° C | 48% | 1019.8 hPa | 0 mm | - | 551 W/m² | - |
| 1787938619 | 25.56° C | 49% | 1020 hPa | 0 mm | - | 552 W/m² | - |
| 1787938316 | 25.56° C | 49% | 1020 hPa | 0 mm | - | 563 W/m² | - |
| 1787938011 | 25.56° C | 50% | 1020 hPa | 0 mm | - | 555 W/m² | - |
| 1787937706 | 25.56° C | 50% | 1020.3 hPa | 0 mm | - | 545 W/m² | - |
| 1787937402 | 25.56° C | 50% | 1020.4 hPa | 0 mm | - | 626 W/m² | - |
| 1787937098 | 25.56° C | 52% | 1020.4 hPa | 0 mm | - | 649 W/m² | - |
| 1787936797 | 25.56° C | 51% | 1020.6 hPa | 0 mm | - | 641 W/m² | - |
| 1787936492 | 25.56° C | 52% | 1020.3 hPa | 0 mm | - | 632 W/m² | - |
| 1787936192 | 25.56° C | 51% | 1020.4 hPa | 0 mm | - | 654 W/m² | - |
| 1787935887 | 25.56° C | 52% | 1020.7 hPa | 0 mm | - | 693 W/m² | - |
| 1787935583 | 25.56° C | 51% | 1020.6 hPa | 0 mm | - | 736 W/m² | - |
| 1787935279 | 26.11° C | 51% | 1020.7 hPa | 0 mm | - | 722 W/m² | - |
| 1787934974 | 25° C | 51% | 1020.8 hPa | 0 mm | - | 681 W/m² | - |
| 1787934669 | 25° C | 54% | 1020.7 hPa | 0 mm | - | 638 W/m² | - |
| 1787934369 | 25° C | 55% | 1020.9 hPa | 0 mm | - | 649 W/m² | - |
| 1787934068 | 25° C | 55% | 1020.9 hPa | 0 mm | - | 630 W/m² | - |
| 1787933767 | 24.44° C | 54% | 1020.9 hPa | 0 mm | - | 576 W/m² | - |
| 1787933462 | 25° C | 56% | 1020.8 hPa | 0 mm | - | 652 W/m² | - |
| 1787933156 | 24.44° C | 57% | 1021.1 hPa | 0 mm | - | 637 W/m² | - |
| 1787932851 | 24.44° C | 57% | 1021 hPa | 0 mm | - | 629 W/m² | - |
| 1787932550 | 24.44° C | 57% | 1021 hPa | 0 mm | - | 624 W/m² | - |
* Rain latest hour (hover to see other rain measurements)
** Current wind speed in m/s (hover to see current wind gust speed)